Home > Weather > Rosenheim > Past weeks

Flag for Germany Weather for the Past 2 Weeks in Rosenheim, Bavaria, Germany

Now
46 °F

Clear.


Feels Like: 44 °F
Forecast: 46 / 59 °F
Wind: 6 mph from West

Location: Munich / Franz Josef Strauss Airport

Current Time: May 1, 2016 at 7:04:20 AM

Latest Report: May 1, 2016 at 6:20 AM


Visibility: 10 mi

Pressure: 29.86 "Hg

Humidity: 87%

Dew Point: 43 °F

Location of RosenheimLocation

Historic Weather in Rosenheim — Graph

°F

Rosenheim Temperature Yesterday

Maximum temperature yesterday: 66 °F (at 4:20 PM)
Minimum temperature yesterday: 30 °F (at 5:20 AM)
Average temperature yesterday: 50 °F

High & Low Weather Summary for the Past Weeks

 TemperatureHumidityPressure
High66 °F (Apr 22, 2:50 PM)100% (Apr 16, 5:20 AM)30.39 "Hg (Apr 16, 5:20 AM)
Low27 °F (Apr 29, 5:50 AM)22% (Apr 30, 4:50 PM)29.59 "Hg (Apr 17, 2:50 AM)
Average46 °F72%29.96 "Hg
* Reported Apr 16 5:20 AM — May 1 5:20 AM, Rosenheim, Weather by CustomWeather, © 2016

Note: Actual official high and low records may vary slightly from our data, if they occured in-between our weather recording intervals... More about our weather records

Advertising

Rosenheim Weather History for the Previous 24 Hours

Scroll right to see more
 ConditionsComfort  
Time TempWeatherWind HumidityBarometerVisibility
5:20 AM
Sun, May 1
46 °FPassing clouds.6 mph87%29.86 "HgN/A
4:20 AM46 °FPassing clouds.7 mph82%29.86 "HgN/A
3:50 AM50 °FClear.6 mph62%29.86 "Hg10 mi
3:20 AM46 °FPassing clouds.3 mph71%29.86 "HgN/A
2:50 AM48 °FPassing clouds.5 mph66%29.86 "HgN/A
2:20 AM50 °FClear.6 mph58%29.86 "Hg10 mi
1:50 AM52 °FClear.9 mph54%29.83 "Hg10 mi
1:20 AM52 °FClear.10 mph54%29.83 "Hg10 mi
12:50 AM52 °FClear.9 mph50%29.83 "Hg10 mi
12:20 AM52 °FClear.8 mph50%29.83 "Hg10 mi
11:50 PM
Sat, Apr 30
52 °FClear.9 mph50%29.83 "Hg10 mi
11:20 PM52 °FClear.9 mph47%29.86 "Hg10 mi
10:50 PM54 °FClear.8 mph41%29.86 "Hg10 mi
10:20 PM54 °FClear.9 mph41%29.86 "Hg10 mi
9:50 PM54 °FClear.7 mph41%29.86 "Hg10 mi
9:20 PM55 °FSunny.6 mph38%29.86 "Hg10 mi
8:50 PM55 °FSunny.6 mph38%29.86 "Hg10 mi
8:20 PM57 °FSunny.7 mph36%29.86 "Hg10 mi
7:50 PM59 °FSunny.6 mph31%29.86 "Hg10 mi
7:20 PM61 °FSunny.7 mph27%29.86 "Hg10 mi
6:50 PM63 °FSunny.12 mph25%29.89 "Hg10 mi
6:20 PM64 °FPassing clouds.14 mph24%29.89 "HgN/A
5:50 PM64 °FPassing clouds.13 mph24%29.89 "HgN/A
5:20 PM64 °FPassing clouds.14 mph26%29.89 "HgN/A
4:50 PM66 °FPassing clouds.13 mph22%29.89 "HgN/A
4:20 PM66 °FPassing clouds.13 mph28%29.92 "HgN/A
3:50 PM64 °FPassing clouds.12 mph30%29.92 "HgN/A
3:20 PM64 °FPassing clouds.12 mph30%29.92 "HgN/A
2:50 PM64 °FPassing clouds.12 mph30%29.95 "HgN/A
2:20 PM64 °FPassing clouds.10 mph30%29.95 "HgN/A
1:50 PM63 °FPassing clouds.12 mph34%29.95 "HgN/A
1:20 PM63 °FPassing clouds.10 mph27%29.98 "HgN/A
12:50 PM63 °FPassing clouds.9 mph34%29.98 "HgN/A
12:20 PM61 °FPassing clouds.8 mph39%29.98 "HgN/A
11:20 AM57 °FPassing clouds.5 mph48%30.01 "HgN/A
10:20 AM55 °FSunny.2 mph51%30.04 "Hg10 mi
9:50 AM52 °FSunny.2 mph58%30.04 "Hg10 mi
9:20 AM50 °FSunny.1 mph62%30.04 "Hg10 mi
8:50 AM46 °FSunny.1 mph66%30.04 "Hg10 mi
8:20 AM45 °FPassing clouds.3 mph71%30.04 "HgN/A
7:50 AM41 °FSunny.2 mph76%30.04 "Hg10 mi
7:20 AM36 °FSunny.2 mph93%30.04 "Hg10 mi
Weather by CustomWeather, © 2016

See weather overviewHow to use our weather pages